timestamp,wind_dir_avg,wind_spd_avg,wind_spd_max_dir,wind_spd_gust,battery_voltage,lat,long
2023-07-04 00:04:00+00:00,198.0,2.25,202.0,2.52,12.73,47.59359,-54.27349
2023-07-04 00:14:00+00:00,197.0,1.72,196.0,1.83,12.41,47.59359,-54.27349
2023-07-04 00:24:00+00:00,176.0,1.85,176.0,1.92,12.41,47.59359,-54.27349
2023-07-04 00:34:00+00:00,180.0,2.03,180.0,2.16,12.41,47.59359,-54.27349
2023-07-04 00:44:00+00:00,178.0,1.13,178.0,1.22,12.41,47.59359,-54.27349
2023-07-04 00:54:00+00:00,196.0,1.4,198.0,1.54,12.41,47.59359,-54.27349
2023-07-04 01:04:00+00:00,148.0,1.43,146.0,1.58,12.41,47.59359,-54.27349
2023-07-04 01:14:01+00:00,183.0,1.73,185.0,1.8,12.41,47.59359,-54.27349
2023-07-04 01:24:01+00:00,200.0,1.3,200.0,1.44,12.41,47.59359,-54.27349
2023-07-04 01:34:01+00:00,161.0,1.14,165.0,1.55,12.41,47.59359,-54.27349
2023-07-04 01:44:01+00:00,188.0,1.21,196.0,1.4,12.41,47.59359,-54.27349
2023-07-04 01:54:01+00:00,141.0,0.76,134.0,0.99,12.41,47.59359,-54.27349
2023-07-04 02:04:01+00:00,120.0,0.39,121.0,0.64,12.41,47.59359,-54.27349
2023-07-04 02:14:00+00:00,111.0,0.48,126.0,0.57,12.41,47.59359,-54.27349
2023-07-04 02:24:00+00:00,107.0,0.43,111.0,0.58,12.41,47.59359,-54.27349
2023-07-04 02:34:00+00:00,109.0,0.91,109.0,1.06,12.41,47.59359,-54.27349
2023-07-04 02:44:00+00:00,26.0,0.46,27.0,0.61,12.41,47.59359,-54.27349
2023-07-04 02:54:00+00:00,50.0,1.15,52.0,1.51,12.41,47.59359,-54.27349
2023-07-04 03:04:00+00:00,57.0,2.06,57.0,2.47,12.41,47.59359,-54.27349
2023-07-04 03:14:01+00:00,74.0,1.38,72.0,1.63,12.33,47.59359,-54.27349
2023-07-04 03:24:01+00:00,109.0,1.31,110.0,2.11,12.33,47.59359,-54.27349
2023-07-04 03:34:01+00:00,84.0,1.17,78.0,1.58,12.33,47.59359,-54.27349
2023-07-04 03:44:01+00:00,26.0,1.4,54.0,2.27,12.33,47.59359,-54.27349
2023-07-04 03:54:01+00:00,354.0,1.59,357.0,1.66,12.33,47.59359,-54.27349
2023-07-04 04:04:01+00:00,323.0,3.24,319.0,3.85,12.33,47.59359,-54.27349
2023-07-04 04:14:00+00:00,343.0,2.71,343.0,2.99,12.33,47.59359,-54.27349
2023-07-04 04:24:00+00:00,335.0,1.69,341.0,1.85,12.33,47.59359,-54.27349
2023-07-04 04:34:00+00:00,274.0,1.54,275.0,1.56,12.33,47.59359,-54.27349
2023-07-04 04:44:00+00:00,240.0,4.67,240.0,5.2,12.33,47.59359,-54.27349
2023-07-04 04:54:00+00:00,232.0,5.08,233.0,6.4,12.33,47.59359,-54.27349
2023-07-04 05:04:00+00:00,230.0,5.46,235.0,6.53,12.33,47.59359,-54.27349
2023-07-04 05:14:01+00:00,234.0,5.59,240.0,6.38,12.25,47.59359,-54.27349
2023-07-04 05:24:01+00:00,233.0,5.9,237.0,6.93,12.25,47.59359,-54.27349
2023-07-04 05:34:01+00:00,236.0,4.37,237.0,5.19,12.25,47.59359,-54.27349
2023-07-04 05:44:01+00:00,231.0,4.91,232.0,5.84,12.25,47.59359,-54.27349
2023-07-04 05:54:01+00:00,228.0,4.35,217.0,4.99,12.25,47.59359,-54.27349
2023-07-04 06:04:01+00:00,236.0,4.26,235.0,4.93,12.25,47.59359,-54.27349
2023-07-04 06:14:00+00:00,251.0,4.68,251.0,5.14,12.33,47.59359,-54.27349
2023-07-04 06:24:00+00:00,245.0,5.92,247.0,6.71,12.33,47.59359,-54.27349
2023-07-04 06:34:00+00:00,236.0,7.1,242.0,9.16,12.33,47.59359,-54.27349
2023-07-04 06:44:00+00:00,243.0,8.09,250.0,10.63,12.33,47.59359,-54.27349
2023-07-04 06:54:00+00:00,238.0,8.22,241.0,10.07,12.33,47.59359,-54.27349
2023-07-04 07:04:00+00:00,234.0,8.21,231.0,9.2,12.33,47.59359,-54.27349
2023-07-04 07:14:01+00:00,232.0,8.71,228.0,9.89,12.25,47.59359,-54.27349
2023-07-04 07:24:01+00:00,242.0,10.77,243.0,11.91,12.25,47.59359,-54.27349
2023-07-04 07:34:01+00:00,249.0,10.14,244.0,10.91,12.25,47.59359,-54.27349
2023-07-04 07:44:01+00:00,251.0,9.21,252.0,9.99,12.25,47.59359,-54.27349
2023-07-04 07:54:01+00:00,246.0,7.77,248.0,9.69,12.25,47.59359,-54.27349
2023-07-04 08:04:01+00:00,246.0,9.52,250.0,11.29,12.25,47.59359,-54.27349
2023-07-04 08:14:01+00:00,237.0,9.09,240.0,11.43,12.25,47.59359,-54.27349
2023-07-04 08:24:01+00:00,221.0,7.27,228.0,8.81,12.25,47.59359,-54.27349
2023-07-04 08:34:01+00:00,235.0,9.3,238.0,11.85,12.25,47.59359,-54.27349
2023-07-04 08:44:01+00:00,232.0,9.47,239.0,12.03,12.25,47.59359,-54.27349
2023-07-04 08:54:01+00:00,224.0,5.84,230.0,7.91,12.25,47.59359,-54.27349
2023-07-04 09:04:01+00:00,225.0,4.99,243.0,8.71,12.25,47.59359,-54.27349
2023-07-04 09:14:01+00:00,213.0,5.73,210.0,6.57,12.17,47.59359,-54.27349
2023-07-04 09:24:01+00:00,206.0,7.3,208.0,7.98,12.17,47.59359,-54.27349
2023-07-04 09:34:01+00:00,206.0,8.0,205.0,8.46,12.17,47.59359,-54.27349
2023-07-04 09:44:01+00:00,197.0,7.36,200.0,8.02,12.17,47.59359,-54.27349
2023-07-04 09:54:01+00:00,199.0,7.45,201.0,8.02,12.17,47.59359,-54.27349
2023-07-04 10:04:01+00:00,198.0,7.45,200.0,8.01,12.17,47.59359,-54.27349
2023-07-04 10:14:00+00:00,201.0,6.66,201.0,7.39,12.25,47.59359,-54.27349
2023-07-04 10:24:00+00:00,201.0,6.84,203.0,7.36,12.25,47.59359,-54.27349
2023-07-04 10:34:00+00:00,204.0,6.17,199.0,7.9,12.25,47.59359,-54.27349
2023-07-04 10:44:00+00:00,205.0,6.75,206.0,7.09,12.25,47.59359,-54.27349
2023-07-04 10:54:00+00:00,207.0,5.78,207.0,6.22,12.25,47.59359,-54.27349
2023-07-04 11:04:00+00:00,206.0,6.1,207.0,6.65,12.25,47.59359,-54.27349
2023-07-04 11:14:01+00:00,205.0,5.65,204.0,6.17,12.81,47.59359,-54.27349
2023-07-04 11:24:01+00:00,200.0,6.8,203.0,7.44,12.81,47.59359,-54.27349
2023-07-04 11:34:01+00:00,197.0,6.86,199.0,7.61,12.81,47.59359,-54.27349
2023-07-04 11:44:01+00:00,199.0,6.81,196.0,7.24,12.81,47.59359,-54.27349
2023-07-04 11:54:01+00:00,204.0,6.15,204.0,6.66,12.81,47.59359,-54.27349
2023-07-04 12:04:01+00:00,206.0,5.93,204.0,6.67,12.81,47.59359,-54.27349
2023-07-04 12:14:00+00:00,207.0,4.68,206.0,5.34,13.21,47.59359,-54.27349
2023-07-04 12:24:00+00:00,204.0,5.05,203.0,5.76,13.21,47.59359,-54.27349
2023-07-04 12:34:00+00:00,203.0,5.5,207.0,6.32,13.21,47.59359,-54.27349
2023-07-04 12:44:00+00:00,203.0,5.14,204.0,5.84,13.21,47.59359,-54.27349
2023-07-04 12:54:00+00:00,206.0,5.47,211.0,5.97,13.21,47.59359,-54.27349
2023-07-04 13:04:00+00:00,205.0,5.45,207.0,5.92,13.21,47.59359,-54.27349
2023-07-04 13:14:01+00:00,204.0,5.45,207.0,6.06,13.29,47.59359,-54.27349
2023-07-04 13:24:01+00:00,201.0,6.12,198.0,6.88,13.29,47.59359,-54.27349
2023-07-04 13:34:01+00:00,203.0,5.89,205.0,6.37,13.29,47.59359,-54.27349
2023-07-04 13:44:01+00:00,195.0,6.64,196.0,7.18,13.29,47.59359,-54.27349
2023-07-04 13:54:01+00:00,199.0,6.59,198.0,7.32,13.29,47.59359,-54.27349
2023-07-04 14:04:01+00:00,204.0,6.64,207.0,7.44,13.29,47.59359,-54.27349
2023-07-04 14:14:00+00:00,208.0,6.61,208.0,8.06,13.6,47.59359,-54.27349
2023-07-04 14:24:00+00:00,208.0,5.91,210.0,7.0,13.6,47.59359,-54.27349
2023-07-04 14:34:00+00:00,212.0,6.38,214.0,7.08,13.6,47.59359,-54.27349
2023-07-04 14:44:00+00:00,209.0,6.12,215.0,7.21,13.6,47.59359,-54.27349
2023-07-04 14:54:00+00:00,209.0,5.66,210.0,6.31,13.6,47.59359,-54.27349
2023-07-04 15:04:00+00:00,204.0,6.61,204.0,7.53,13.6,47.59359,-54.27349
2023-07-04 15:14:00+00:00,206.0,5.42,204.0,5.99,13.53,47.59359,-54.27349
2023-07-04 15:24:00+00:00,213.0,5.44,210.0,6.01,13.53,47.59359,-54.27349
2023-07-04 15:34:00+00:00,210.0,5.53,211.0,6.16,13.53,47.59359,-54.27349
2023-07-04 15:44:00+00:00,207.0,5.52,210.0,6.06,13.53,47.59359,-54.27349
2023-07-04 15:54:00+00:00,207.0,5.9,212.0,7.01,13.53,47.59359,-54.27349
2023-07-04 16:04:00+00:00,206.0,4.36,203.0,5.03,13.53,47.59359,-54.27349
2023-07-04 16:14:00+00:00,207.0,4.21,210.0,4.65,13.6,47.59359,-54.27349
2023-07-04 16:24:00+00:00,195.0,4.85,197.0,5.63,13.6,47.59359,-54.27349
2023-07-04 16:34:00+00:00,203.0,5.52,204.0,6.51,13.6,47.59359,-54.27349
2023-07-04 16:44:00+00:00,206.0,5.39,208.0,6.47,13.6,47.59359,-54.27349
2023-07-04 16:54:00+00:00,208.0,5.47,208.0,6.81,13.6,47.59359,-54.27349
2023-07-04 17:04:00+00:00,214.0,4.69,215.0,5.22,13.6,47.59359,-54.27349
2023-07-04 17:14:00+00:00,204.0,6.36,204.0,7.33,13.68,47.59359,-54.27349
2023-07-04 17:24:00+00:00,208.0,6.04,206.0,6.32,13.68,47.59359,-54.27349
2023-07-04 17:34:00+00:00,211.0,5.04,210.0,5.62,13.68,47.59359,-54.27349
2023-07-04 17:44:00+00:00,197.0,5.48,199.0,6.42,13.68,47.59359,-54.27349
2023-07-04 17:54:00+00:00,201.0,6.49,199.0,7.66,13.68,47.59359,-54.27349
2023-07-04 18:04:00+00:00,209.0,7.2,209.0,8.0,13.68,47.59359,-54.27349
2023-07-04 18:14:00+00:00,211.0,7.64,232.0,10.37,13.6,47.59359,-54.27349
2023-07-04 18:24:00+00:00,201.0,7.33,202.0,8.36,13.6,47.59359,-54.27349
2023-07-04 18:34:00+00:00,315.0,0.01,206.0,0.0,13.6,47.59359,-54.27349
2023-07-04 18:44:00+00:00,214.0,8.59,226.0,10.02,13.6,47.59359,-54.27349
2023-07-04 18:54:00+00:00,208.0,6.73,209.0,6.74,13.6,47.59359,-54.27349
2023-07-04 19:04:00+00:00,315.0,0.01,211.0,0.0,13.6,47.59359,-54.27349
2023-07-04 19:14:00+00:00,205.0,5.84,204.0,6.27,13.6,47.59359,-54.27349
2023-07-04 19:24:00+00:00,315.0,0.01,204.0,0.0,13.6,47.59359,-54.27349
2023-07-04 19:34:00+00:00,315.0,0.01,204.0,0.0,13.6,47.59359,-54.27349
2023-07-04 19:44:00+00:00,315.0,0.01,204.0,0.0,13.6,47.59359,-54.27349
2023-07-04 19:54:00+00:00,204.0,7.67,205.0,8.09,13.6,47.59359,-54.27349
2023-07-04 20:04:00+00:00,203.0,7.8,205.0,8.32,13.6,47.59359,-54.27349
2023-07-04 20:14:00+00:00,204.0,7.4,205.0,7.8,13.6,47.59359,-54.27349
2023-07-04 20:24:00+00:00,202.0,6.08,203.0,6.81,13.6,47.59359,-54.27349
2023-07-04 20:34:00+00:00,211.0,6.69,212.0,6.7,13.6,47.59359,-54.27349
2023-07-04 20:44:00+00:00,211.0,7.88,213.0,8.14,13.6,47.59359,-54.27349
2023-07-04 20:54:00+00:00,234.0,9.86,239.0,10.96,13.6,47.59359,-54.27349
2023-07-04 21:04:00+00:00,231.0,10.71,232.0,11.86,13.6,47.59359,-54.27349
2023-07-04 21:14:00+00:00,233.0,9.56,235.0,11.04,13.29,47.59359,-54.27349
2023-07-04 21:24:00+00:00,202.0,8.05,203.0,8.06,13.29,47.59359,-54.27349
2023-07-04 21:34:00+00:00,203.0,5.86,206.0,6.68,13.29,47.59359,-54.27349
2023-07-04 21:44:00+00:00,196.0,5.07,200.0,5.54,13.29,47.59359,-54.27349
2023-07-04 21:54:00+00:00,195.0,5.54,196.0,6.12,13.29,47.59359,-54.27349
2023-07-04 22:04:00+00:00,201.0,6.83,202.0,6.95,13.29,47.59359,-54.27349
2023-07-04 22:14:00+00:00,315.0,0.01,205.0,0.0,12.97,47.59359,-54.27349
2023-07-04 22:24:00+00:00,211.0,6.64,210.0,7.03,12.97,47.59359,-54.27349
2023-07-04 22:34:00+00:00,204.0,6.98,205.0,6.99,12.97,47.59359,-54.27349
2023-07-04 22:44:00+00:00,211.0,5.76,214.0,6.08,12.97,47.59359,-54.27349
2023-07-04 22:54:00+00:00,315.0,0.01,213.0,0.0,12.97,47.59359,-54.27349
2023-07-04 23:04:00+00:00,223.0,7.15,224.0,7.16,12.97,47.59359,-54.27349
2023-07-04 23:14:01+00:00,315.0,0.01,224.0,0.0,12.57,47.59359,-54.27349
2023-07-04 23:24:01+00:00,210.0,8.26,211.0,8.27,12.57,47.59359,-54.27349
2023-07-04 23:34:01+00:00,315.0,0.01,228.0,0.0,12.57,47.59359,-54.27349
2023-07-04 23:44:01+00:00,315.0,0.01,229.0,0.0,12.57,47.59359,-54.27349
2023-07-04 23:54:01+00:00,315.0,0.01,229.0,0.0,12.57,47.59359,-54.27349
